Regional Weather Roundup
Issued by NWS Columbia, SC

Home | Current Version | Previous Version | Text Only | Print | Product List | Glossary On
Versions: 1 2 3 4 5 6 7 8 9 10 11 12 13 14 15 16 17 18 19 20 21 22 23 24 25 26 27 28 29 30 31 32 33 34 35 36 37 38 39 40 41 42 43 44 45 46 47 48 49 50
000
ASUS42 KCAE 060910
RWRCAE
REGIONAL WEATHER ROUNDUP
NATIONAL WEATHER SERVICE COLUMBIA SC
500 AM EDT MON JUL 06 2015

NOTE: "FAIR" INDICATES FEW OR NO CLOUDS BELOW 12,000 FEET WITH NO
SIGNIFICANT WEATHER AND/OR OBSTRUCTIONS TO VISIBILITY.

NOT ALL STATIONS ARE QUALITY CONTROLLED BY THE NATIONAL
WEATHER SERVICE. USE DATA WITH CAUTION...ESPECIALLY
DEWPOINT OBSERVATIONS.

SCZ001>056-GAZ040-063>065-077-061000-
...UPSTATE SOUTH CAROLINA...

CITY           SKY/WX    TMP DP  RH WIND       PRES   REMARKS
ANDERSON       PTCLDY    68  66  93 NW3       30.09S
SPARTANBURG      N/A     70  64  83 CALM      30.08S
CLEMSON        PTCLDY    70  65  84 VRB3      30.10S
GREENVILLE     PTCLDY    69  63  81 CALM      30.10R
GREENWOOD      CLEAR     70  68  93 S3        30.11S
GREER          PTCLDY    68  64  87 W3        30.08R
ROCK HILL      CLOUDY    70  69  97 S7        30.09S
CHESTER        MOSUNNY   72  70  94 S5        30.10S
LAURENS        SUNNY     68  68 100 S3        30.09R FOG


...CENTRAL SOUTH CAROLINA...

CITY           SKY/WX    TMP DP  RH WIND       PRES   REMARKS
COLUMBIA APT   CLOUDY    74  70  87 SW3       30.09S
COLUMBIA OWENS CLOUDY    73  70  90 S3        30.11R
DARLINGTON     CLEAR     72  68  88 SW6       30.10S
FLORENCE       CLEAR     73  71  93 SW6       30.09F
MCENTIRE ANGB  CLOUDY    72  70  95 SW5       30.11R
ORANGEBURG     CLOUDY    71  69  93 SW8       30.12R
SUMTER SHAW    CLOUDY    71  69  93 SW6       30.09R
NEWBERRY       SUNNY     64  64 100 CALM      30.13S
BARNWELL       CLOUDY    72  72 100 CALM      30.12S FOG
MANNING        FAIR      70  70 100 SW3       30.11S
CAMDEN         CLOUDY    72  72 100 S3        30.11R
LANCASTER      SUNNY     70  70 100 S5        30.10R FOG
WINNSBORO      FOG       70  70 100 S6        30.10S VSB 1/4


...EASTERN AND COASTAL SOUTH CAROLINA...

CITY           SKY/WX    TMP DP  RH WIND       PRES   REMARKS
MYRTLE BEACH   MOCLDY    75  70  83 W5        30.13S
N MYRTLE BCH   PTCLDY    77  71  82 SW5       30.11S
CONWAY         FAIR      72  72 100 CALM      30.11S FOG
MARION         FAIR      72  72 100 S5        30.10S
HARTSVILLE     PTSUNNY   68  68 100 CALM      30.09F
FLORENCE       CLEAR     73  71  93 SW6       30.09F
DARLINGTON     CLEAR     72  68  88 SW6       30.10S
CHARLESTON APT PTCLDY    71  68  90 CALM      30.11S
MOUNT PLEASANT LGT RAIN  72  72 100 CALM      30.11S
WALTERBORO     CLOUDY    70  68  94 SW5       30.12S
BEAUFORT       CLOUDY    71  69  93 SW8       30.12S


...EASTERN GEORGIA...

CITY           SKY/WX    TMP DP  RH WIND       PRES   REMARKS
AUGUSTA BUSH F PTCLDY    71  70  96 S6        30.10R
AUGUSTA DANIEL PTCLDY    73  69  87 S3        30.12R
THOMSON        CLEAR     73  73 100 CALM      30.15S
WASHINGTON     FAIR      72  72 100 SW3       30.10S
CLAXTON        CLOUDY    72  72 100 SW3       30.13S
SYLVANIA       CLOUDY    73  73 100 CALM      30.14R
SAVANNAH       CLOUDY    70  68  93 W3        30.13S


...SOUTHERN NORTH CAROLINA...

CITY           SKY/WX    TMP DP  RH WIND       PRES   REMARKS
CHARLOTTE      PTCLDY    69  67  93 S6        30.09R
MONROE         PTCLDY    69  68  96 SW6       30.08S
WADESBORO      SUNNY     71  68  90 S3        30.08S
ROCKINGHAM     SUNNY     70  69  96 S5        30.09S
ASHEVILLE      CLOUDY    66  62  87 N3        30.15R

$$


USA.gov is the U.S. government's official web portal to all federal, state and local government web resources and services.